| time (UTC) | temp F | wind direction | speed MPH | gust MPH | rain 1hr in | rain 24hr in | rain mn in | humidity % | barometer mb |
| 20260905203516 | 65 | 270 | 3.0 | 6.0 | 0.00 | 0.20 | 0.20 | 76 | 1021.4 |
| 20260905202517 | 63 | 248 | 2.0 | 4.0 | 0.00 | 0.20 | 0.20 | 78 | 1021.3 |
| 20260905201517 | 62 | 248 | 3.0 | 7.0 | 0.00 | 0.20 | 0.20 | 81 | 1021.3 |
| 20260905200518 | 60 | 270 | 2.0 | 5.0 | 0.00 | 0.20 | 0.20 | 83 | 1021.2 |
| 20260905195517 | 60 | 270 | 2.0 | 8.0 | 0.00 | 0.20 | 0.20 | 83 | 1021.1 |
| 20260905194517 | 60 | 293 | 2.0 | 4.0 | 0.00 | 0.20 | 0.20 | 83 | 1020.9 |
| 20260905193516 | 60 | 293 | 2.0 | 4.0 | 0.00 | 0.20 | 0.20 | 83 | |
| 20260905192516 | 60 | 293 | 2.0 | 3.0 | 0.00 | 0.20 | 0.20 | 82 | |
| 20260905191537 | 61 | 293 | 2.0 | 3.0 | 0.00 | 0.20 | 0.20 | 81 | |
| 20260905190517 | 61 | 293 | 2.0 | 3.0 | 0.00 | 0.20 | 0.20 | 81 | 1020.7 |
| 20260905185536 | 62 | 293 | 2.0 | 3.0 | 0.00 | 0.20 | 0.20 | 80 | 1020.7 |
| 20260905184538 | 62 | 293 | 2.0 | 3.0 | 0.00 | 0.20 | 0.20 | 79 | 1020.5 |
| 20260905183516 | 63 | 293 | 2.0 | 3.0 | 0.00 | 0.20 | 0.20 | 78 | 1020.4 |
| 20260905182518 | 64 | 293 | 1.0 | 2.0 | 0.00 | 0.20 | 0.20 | 76 | 1020.2 |
| 20260905181517 | 65 | 293 | 1.0 | 3.0 | 0.00 | 0.20 | 0.20 | 74 | 1020.1 |
| 20260905180517 | 66 | 293 | 1.0 | 2.0 | 0.00 | 0.20 | 0.20 | 72 | 1020.2 |
| 20260905175516 | 68 | 293 | 1.0 | 2.0 | 0.00 | 0.20 | 0.20 | 67 | 1020.1 |
| 20260905174517 | 69 | 293 | 2.0 | 3.0 | 0.00 | 0.20 | 0.20 | 65 | 1020.0 |
| 20260905173518 | 70 | 270 | 2.0 | 4.0 | 0.00 | 0.20 | 0.20 | 62 | 1019.8 |
| 20260905172537 | 71 | 315 | 1.0 | 3.0 | 0.00 | 0.20 | 0.20 | 59 | 1019.7 |
| 20260905171517 | 72 | 315 | 3.0 | 5.0 | 0.00 | 0.20 | 0.20 | 57 | 1019.7 |
| 20260905170518 | 73 | 270 | 3.0 | 7.0 | 0.00 | 0.20 | 0.20 | 56 | 1019.6 |
| 20260905165517 | 73 | 293 | 3.0 | 6.0 | 0.00 | 0.20 | 0.20 | 55 | 1019.6 |
| 20260905164518 | 74 | 293 | 4.0 | 8.0 | 0.00 | 0.20 | 0.20 | 55 | 1019.4 |
| 20260905163537 | 0 | 270 | 4.0 | 10.0 | 0.00 | 0.20 | 0.20 | ||
| 20260905162517 | 0 | 270 | 4.0 | 8.0 | 0.00 | 0.20 | 0.20 | ||
| 20260905161517 | 0 | 293 | 6.0 | 12.0 | 0.00 | 0.20 | 0.20 | ||
| 20260905160518 | 0 | 270 | 4.0 | 9.0 | 0.00 | 0.20 | 0.20 | ||
| 20260905155517 | 0 | 270 | 7.0 | 14.0 | 0.00 | 0.20 | 0.20 | ||
| 20260905154517 | 0 | 270 | 5.0 | 11.0 | 0.00 | 0.20 | 0.20 | ||
| 20260905153537 | 0 | 293 | 6.0 | 10.0 | 0.00 | 0.20 | 0.20 | ||
| 20260905152519 | 0 | 270 | 4.0 | 10.0 | 0.00 | 0.20 | 0.20 | 51 | |
| 20260905151518 | 0 | 281 | 4.0 | 0.0 | 0.00 | 0.20 | 0.20 | 51 | |
| 20260905150517 | 0 | 293 | 6.0 | 12.0 | 0.00 | 0.20 | 0.20 | 51 | |
| 20260905145517 | 0 | 270 | 7.0 | 13.0 | 0.00 | 0.20 | 0.20 | ||
| 20260905144517 | 0 | 270 | 8.0 | 13.0 | 0.00 | 0.20 | 0.20 | ||
| 20260905144135 | 0 | 270 | 7.0 | 13.0 | 0.00 | 0.20 | 0.20 | ||
| 20260905141517 | 0 | 270 | 7.0 | 12.0 | 0.00 | 0.20 | 0.20 | ||
| 20260905140538 | 0 | 270 | 7.0 | 15.0 | 0.00 | 0.20 | 0.20 | ||
| 20260905135517 | 0 | 248 | 6.0 | 15.0 | 0.00 | 0.20 | 0.20 | ||
| 20260905134517 | 0 | 293 | 7.0 | 17.0 | 0.00 | 0.20 | 0.20 | ||
| 20260905133518 | 0 | 270 | 8.0 | 16.0 | 0.00 | 0.20 | 0.20 | ||
| 20260905132517 | 74 | 270 | 10.0 | 22.0 | 0.00 | 0.20 | 0.20 | 60 | |
| 20260905131517 | 74 | 225 | 9.0 | 16.0 | 0.00 | 0.20 | 0.20 | 60 | 1019.2 |
| 20260905130520 | 74 | 270 | 9.0 | 17.0 | 0.00 | 0.20 | 0.20 | 60 | 1019.2 |
| 20260905130408 | 74 | 270 | 8.0 | 18.0 | 0.00 | 0.20 | 0.20 | 60 | 1019.2 |
| 20260905123517 | 74 | 270 | 10.0 | 15.0 | 0.00 | 0.20 | 0.20 | 62 | 1019.6 |
| 20260905122517 | 73 | 270 | 10.0 | 19.0 | 0.00 | 0.20 | 0.20 | 63 | 1019.4 |
| 20260905121517 | 73 | 225 | 8.0 | 19.0 | 0.00 | 0.20 | 0.20 | 63 | 1019.4 |
| 20260905120517 | 74 | 270 | 8.0 | 21.0 | 0.00 | 0.20 | 0.20 | 64 | 1019.4 |
| 20260905115537 | 73 | 270 | 6.0 | 15.0 | 0.00 | 0.20 | 0.20 | 65 | 1019.4 |
| 20260905114517 | 73 | 270 | 8.0 | 16.0 | 0.00 | 0.20 | 0.20 | 67 | 1019.7 |
| 20260905113517 | 72 | 270 | 8.0 | 12.0 | 0.00 | 0.20 | 0.20 | 68 | 1019.6 |
| 20260905112517 | 72 | 270 | 9.0 | 15.0 | 0.00 | 0.20 | 0.20 | 70 | 1019.8 |
| 20260905111537 | 71 | 270 | 7.0 | 16.0 | 0.00 | 0.20 | 0.20 | 70 | 1019.8 |
| 20260905110517 | 70 | 270 | 10.0 | 17.0 | 0.00 | 0.20 | 0.20 | 71 | 1019.8 |
| 20260905105517 | 69 | 270 | 8.0 | 17.0 | 0.01 | 0.20 | 0.20 | 74 | 1020.0 |
| 20260905104517 | 68 | 293 | 8.0 | 15.0 | 0.01 | 0.20 | 0.20 | 76 | 1019.9 |
| 20260905103537 | 68 | 270 | 5.0 | 10.0 | 0.01 | 0.20 | 0.20 | 76 | 1019.9 |
| 20260905102517 | 68 | 270 | 8.0 | 14.0 | 0.01 | 0.20 | 0.20 | 78 | 1020.0 |
| 20260905101517 | 68 | 270 | 9.0 | 19.0 | 0.01 | 0.20 | 0.20 | 78 | 1020.1 |
| 20260905100517 | 68 | 270 | 9.0 | 17.0 | 0.01 | 0.20 | 0.20 | 80 | 1020.1 |
| 20260905095517 | 66 | 248 | 6.0 | 15.0 | 0.00 | 0.19 | 0.19 | 82 | 1020.1 |
| 20260905094517 | 66 | 270 | 7.0 | 12.0 | 0.00 | 0.19 | 0.19 | 84 | 1020.0 |
| 20260905093517 | 64 | 270 | 6.0 | 11.0 | 0.00 | 0.19 | 0.19 | 85 | 1020.1 |
| 20260905092517 | 62 | 270 | 4.0 | 7.0 | 0.01 | 0.19 | 0.19 | 86 | 1020.1 |
| 20260905091517 | 61 | 270 | 3.0 | 6.0 | 0.01 | 0.19 | 0.19 | 86 | 1020.1 |
| 20260905090517 | 60 | 270 | 6.0 | 9.0 | 0.02 | 0.19 | 0.19 | 86 | 1020.0 |
| 20260905085517 | 60 | 293 | 4.0 | 8.0 | 0.02 | 0.19 | 0.19 | 86 | 1019.9 |
| 20260905084519 | 60 | 315 | 4.0 | 6.0 | 0.02 | 0.19 | 0.19 | 87 | 1019.9 |
| 20260905083537 | 60 | 225 | 6.0 | 9.0 | 0.02 | 0.19 | 0.19 | 87 | 1019.7 |
| 20260905082538 | 59 | 270 | 9.0 | 16.0 | 0.01 | 0.18 | 0.18 | 87 | 1020.0 |
| 20260905081517 | 59 | 270 | 4.0 | 9.0 | 0.01 | 0.18 | 0.18 | 87 | 1020.0 |
| 20260905080517 | 59 | 270 | 5.0 | 10.0 | 0.06 | 0.17 | 0.17 | 87 | 1020.0 |
| 20260905075517 | 59 | 270 | 5.0 | 9.0 | 0.06 | 0.17 | 0.17 | 87 | 1020.1 |
| 20260905074517 | 59 | 270 | 4.0 | 8.0 | 0.06 | 0.17 | 0.17 | 87 | 1020.0 |
| 20260905073517 | 59 | 270 | 5.0 | 7.0 | 0.09 | 0.17 | 0.17 | 87 | 1020.1 |
| 20260905072517 | 59 | 270 | 3.0 | 8.0 | 0.13 | 0.17 | 0.17 | 87 | 1020.1 |
| 20260905071517 | 59 | 270 | 3.0 | 5.0 | 0.13 | 0.17 | 0.17 | 87 | 1020.0 |
| 20260905070518 | 0 | 180 | 1.0 | 3.0 | 0.06 | 0.11 | 0.11 | ||
| 20260905065517 | 59 | 203 | 3.0 | 7.0 | 0.06 | 0.11 | 0.11 | 84 | |
| 20260905064515 | 59 | 293 | 3.0 | 5.0 | 0.08 | 0.11 | 0.11 | 84 | 1020.0 |
| 20260905063517 | 59 | 270 | 3.0 | 5.0 | 0.08 | 0.08 | 0.09 | 84 | 1020.1 |
| 20260905062517 | 59 | 293 | 4.0 | 7.0 | 0.05 | 0.05 | 0.05 | 83 | 1019.8 |
| 20260905061517 | 60 | 270 | 3.0 | 7.0 | 0.05 | 0.05 | 0.05 | 83 | 1019.0 |
| 20260905060539 | 60 | 270 | 3.0 | 8.0 | 0.05 | 0.05 | 0.05 | 81 | 1019.1 |
| 20260905055517 | 60 | 293 | 6.0 | 10.0 | 0.05 | 0.05 | 0.05 | 79 | 1019.2 |
| 20260905054517 | 63 | 293 | 7.0 | 14.0 | 0.03 | 0.03 | 0.03 | 69 | 1019.5 |
| 20260905053517 | 67 | 315 | 8.0 | 14.0 | 0.00 | 0.00 | 0.00 | 60 | 1019.3 |
| 20260905052517 | 67 | 338 | 7.0 | 13.0 | 0.00 | 0.00 | 0.00 | 57 | 1018.2 |
| 20260905051517 | 67 | 315 | 9.0 | 15.0 | 0.00 | 0.00 | 0.00 | 57 | 1018.1 |
| 20260905050557 | 67 | 315 | 8.0 | 12.0 | 0.00 | 0.00 | 0.00 | 57 | 1017.7 |
| 20260905045518 | 68 | 338 | 9.0 | 20.0 | 0.00 | 0.00 | 0.00 | 57 | 1017.3 |
| 20260905044537 | 68 | 338 | 6.0 | 10.0 | 0.00 | 0.00 | 0.00 | 58 | 1017.7 |
| 20260905043517 | 68 | 315 | 4.0 | 8.0 | 0.00 | 0.00 | 0.00 | 58 | 1017.6 |
| 20260905042517 | 68 | 315 | 4.0 | 9.0 | 0.00 | 0.00 | 0.00 | 59 | 1017.5 |
| 20260905041517 | 68 | 315 | 7.0 | 12.0 | 0.00 | 0.00 | 0.00 | 59 | 1017.3 |
| 20260905040517 | 68 | 338 | 4.0 | 7.0 | 0.00 | 0.00 | 0.00 | 60 | 1016.8 |
| 20260905035517 | 68 | 315 | 5.0 | 9.0 | 0.00 | 0.00 | 0.00 | 59 | 1016.8 |
| 20260905034517 | 69 | 315 | 5.0 | 11.0 | 0.00 | 0.00 | 0.00 | 60 | |
| 20260905033537 | 69 | 315 | 7.0 | 12.0 | 0.00 | 0.00 | 0.00 | 60 | |
| 20260905032517 | 69 | 270 | 4.0 | 7.0 | 0.00 | 0.00 | 0.00 | 62 | |
| 20260905031517 | 70 | 338 | 3.0 | 6.0 | 0.00 | 0.00 | 0.00 | 63 | |
| 20260905030517 | 70 | 315 | 5.0 | 10.0 | 0.00 | 0.00 | 0.00 | 63 | |
| 20260905025518 | 71 | 338 | 6.0 | 12.0 | 0.00 | 0.00 | 0.00 | 64 | |
| 20260905024517 | 71 | 338 | 9.0 | 16.0 | 0.00 | 0.00 | 0.00 | 64 | |
| 20260905023517 | 70 | 338 | 6.0 | 10.0 | 0.00 | 0.00 | 0.00 | 66 | |
| 20260905022517 | 70 | 315 | 4.0 | 7.0 | 0.00 | 0.00 | 0.00 | 67 | |
| 20260905021537 | 69 | 293 | 5.0 | 9.0 | 0.00 | 0.00 | 0.00 | 67 | |
| 20260905020519 | 68 | 293 | 4.0 | 7.0 | 0.00 | 0.00 | 0.00 | 72 | |
| 20260905015517 | 69 | 293 | 3.0 | 4.0 | 0.00 | 0.00 | 0.00 | 71 | |
| 20260905014517 | 70 | 315 | 2.0 | 4.0 | 0.00 | 0.00 | 0.00 | 68 | |
| 20260905013517 | 70 | 293 | 5.0 | 8.0 | 0.00 | 0.00 | 0.00 | 64 | |
| 20260905012517 | 69 | 293 | 4.0 | 7.0 | 0.00 | 0.00 | 0.00 | 64 | |
| 20260905011519 | 68 | 293 | 4.0 | 7.0 | 0.00 | 0.00 | 0.00 | 65 | |
| 20260905010537 | 67 | 315 | 4.0 | 6.0 | 0.00 | 0.00 | 0.00 | 68 | |
| 20260905005517 | 67 | 315 | 3.0 | 5.0 | 0.00 | 0.00 | 0.00 | 68 | |
| 20260905004517 | 68 | 315 | 2.0 | 3.0 | 0.00 | 0.00 | 0.00 | 67 | 1013.2 |
| 20260905003517 | 69 | 315 | 2.0 | 3.0 | 0.00 | 0.00 | 0.00 | 65 | 1013.2 |
| 20260905002517 | 70 | 315 | 2.0 | 4.0 | 0.00 | 0.00 | 0.00 | 63 | 1013.2 |
| 20260905001517 | 70 | 315 | 2.0 | 4.0 | 0.00 | 0.00 | 0.00 | 61 | 1013.1 |
| 20260905000517 | 71 | 315 | 4.0 | 6.0 | 0.00 | 0.00 | 0.00 | 60 | 1013.0 |
| 20260904235517 | 70 | 315 | 4.0 | 9.0 | 0.00 | 0.00 | 0.00 | 61 | 1012.8 |
| 20260904234517 | 69 | 315 | 4.0 | 6.0 | 0.00 | 0.00 | 0.00 | 63 | 1012.8 |
| 20260904233517 | 68 | 315 | 3.0 | 6.0 | 0.00 | 0.00 | 0.00 | 65 | 1012.7 |
| 20260904232517 | 68 | 315 | 3.0 | 6.0 | 0.00 | 0.00 | 0.00 | 64 | 1012.6 |
| 20260904231537 | 69 | 315 | 3.0 | 4.0 | 0.00 | 0.00 | 0.00 | 64 | 1012.6 |
| 20260904230537 | 69 | 293 | 4.0 | 6.0 | 0.00 | 0.00 | 0.00 | 63 | 1012.6 |
| 20260904225517 | 70 | 315 | 3.0 | 4.0 | 0.00 | 0.00 | 0.00 | 62 | 1012.4 |
| 20260904224517 | 70 | 293 | 5.0 | 6.0 | 0.00 | 0.00 | 0.00 | 61 | 1012.4 |
| 20260904223517 | 70 | 293 | 4.0 | 6.0 | 0.00 | 0.00 | 0.00 | 61 | 1012.3 |
| 20260904222518 | 69 | 315 | 3.0 | 6.0 | 0.00 | 0.00 | 0.00 | 63 | 1012.3 |
| 20260904221518 | 69 | 293 | 3.0 | 6.0 | 0.00 | 0.00 | 0.00 | 63 | 1012.2 |
| 20260904220517 | 69 | 293 | 3.0 | 5.0 | 0.00 | 0.00 | 0.00 | 62 | 1012.3 |
| 20260904215517 | 69 | 293 | 3.0 | 5.0 | 0.00 | 0.00 | 0.00 | 62 | 1012.3 |
| 20260904214517 | 68 | 293 | 3.0 | 6.0 | 0.00 | 0.00 | 0.00 | 64 | 1012.3 |
| 20260904213537 | 66 | 315 | 3.0 | 4.0 | 0.00 | 0.00 | 0.00 | 69 | 1012.3 |
| 20260904212537 | 63 | 315 | 2.0 | 3.0 | 0.00 | 0.00 | 0.00 | 74 | 1012.3 |
| 20260904211516 | 64 | 315 | 1.0 | 2.0 | 0.00 | 0.00 | 0.00 | 73 | 1012.2 |
| 20260904210517 | 65 | 315 | 1.0 | 2.0 | 0.00 | 0.00 | 0.00 | 72 | 1012.1 |
| 20260904205517 | 66 | 0.0 | 1.0 | 0.00 | 0.00 | 0.00 | 70 | 1012.1 | |
| 20260904204619 | 67 | 0.0 | 1.0 | 0.00 | 0.00 | 0.00 | 68 | 1012.1 |